This is the latest recevied weather packets stored in our database for station/object N3TTT-13. If no packets are shown the sender has not sent any weather packets the latest 10 day(s).
| Time | Temp. | Humidity | Pressure | Rain* | Wind** | Luminosity | Snow |
|---|---|---|---|---|---|---|---|
| 1777858536 | 8.89° C | 63% | 1015.4 hPa | 0 mm | - | 0 W/m² | - |
| 1777858232 | 9.44° C | 61% | 1015.5 hPa | 0 mm | - | 0 W/m² | - |
| 1777857930 | 9.44° C | 62% | 1015.4 hPa | 0 mm | - | 0 W/m² | - |
| 1777857627 | 9.44° C | 61% | 1015.5 hPa | 0 mm | - | 0 W/m² | - |
| 1777857324 | 9.44° C | 59% | 1015.2 hPa | 0 mm | - | 0 W/m² | - |
| 1777857020 | 10° C | 58% | 1015.1 hPa | 0 mm | - | 0 W/m² | - |
| 1777856716 | 10° C | 59% | 1015 hPa | 0 mm | - | 0 W/m² | - |
| 1777856412 | 10° C | 58% | 1015 hPa | 0 mm | - | 0 W/m² | - |
| 1777856109 | 10° C | 56% | 1015.2 hPa | 0 mm | - | 0 W/m² | - |
| 1777855806 | 10° C | 57% | 1015 hPa | 0 mm | - | 0 W/m² | - |
| 1777855504 | 10° C | 56% | 1015 hPa | 0 mm | - | 0 W/m² | - |
| 1777855201 | 10° C | 56% | 1015.1 hPa | 0 mm | - | 0 W/m² | - |
| 1777854896 | 10° C | 60% | 1015 hPa | 0 mm | - | 0 W/m² | - |
| 1777854594 | 10.56° C | 57% | 1015.1 hPa | 0 mm | - | 0 W/m² | - |
| 1777854291 | 10.56° C | 56% | 1014.7 hPa | 0 mm | - | 0 W/m² | - |
| 1777853988 | 10.56° C | 54% | 1014.8 hPa | 0 mm | - | 0 W/m² | - |
| 1777853685 | 11.11° C | 54% | 1014.3 hPa | 0 mm | - | 0 W/m² | - |
| 1777853382 | 11.11° C | 53% | 1014.6 hPa | 0 mm | - | 0 W/m² | - |
| 1777853079 | 11.11° C | 54% | 1014.3 hPa | 0 mm | - | 0 W/m² | - |
| 1777852776 | 11.67° C | 53% | 1014.4 hPa | 0 mm | - | 0 W/m² | - |
| 1777852474 | 11.67° C | 52% | 1014.5 hPa | 0 mm | - | 1 W/m² | - |
| 1777852171 | 12.22° C | 50% | 1014.4 hPa | 0 mm | - | 2 W/m² | - |
| 1777851869 | 12.22° C | 48% | 1014.4 hPa | 0 mm | - | 5 W/m² | - |
| 1777851567 | 12.78° C | 48% | 1014.3 hPa | 0 mm | - | 7 W/m² | - |
| 1777851263 | 12.78° C | 47% | 1014.2 hPa | 0 mm | - | 10 W/m² | - |
* Rain latest hour (hover to see other rain measurements)
** Current wind speed in m/s (hover to see current wind gust speed)